Regional Weather Roundup
Issued by NWS Albany, NY

Home | Current Version | Previous Version | Graphics & Text | Print | Product List | Glossary On
Versions: 1 2 3 4 5 6 7 8 9 10 11 12 13 14 15 16 17 18 19 20 21 22 23 24 25 26 27
000
ASUS41 KALY 021010
RWRALY

NEW YORK STATE HOURLY WEATHER ROUNDUP
NATIONAL WEATHER SERVICE ALBANY NY
600 AM EDT MON MAY 02 2016

NOTE: "FAIR" INDICATES FEW OR NO CLOUDS BELOW 12,000 FEET WITH NO
SIGNIFICANT WEATHER AND/OR NO OBSTRUCTIONS TO VISIBILITY.

NYZ032-033-038>043-046>054-057>066-NYZ062>081-082-084-021100-
EAST


CITY           SKY/WX    TMP DP  RH WIND       PRES   REMARKS
ALBANY         CLOUDY    45  40  82 S7        30.01F
GLENS FALLS    CLOUDY    43  41  93 E5        30.00F FOG
POUGHKEEPSIE   CLOUDY    45  42  89 E3        30.01S
NEWBURGH       CLOUDY    43  43 100 NE7       30.01S FOG
MONTGOMERY     CLOUDY    44  43  96 NE3       30.00S
WHITE PLAINS   DRIZZLE   44  43  96 NE5       30.00F FOG
ISLIP          CLOUDY    46  44  93 N8        30.00F FOG
NEW YORK CITY  CLOUDY    46  43  89 N7        30.00F FOG
CENTRAL PARK   CLOUDY    46  43  89 VRB5      30.04R FOG
$$

NYZ005>009-017-018-044>046-055-056-021100-
CENTRAL


CITY           SKY/WX    TMP DP  RH WIND       PRES   REMARKS
FULTON         FOG       48  46  93 N3        29.94F VSB 1/2
SYRACUSE       DRIZZLE   48  47  96 CALM      29.93S FOG
ROME           CLOUDY    44  44 100 E6        29.97R
ELMIRA         CLOUDY    49  46  90 NE6       29.89F FOG
BINGHAMTON     FOG       45  45 100 SE6       29.92F VSB 1/4
MONTICELLO     CLOUDY    41  41 100 E6        29.97F VSB 1
$$

NYZ026>034-041>043-087-021100-
NORTH


CITY           SKY/WX    TMP DP  RH WIND       PRES   REMARKS
WATERTOWN      CLOUDY    45  43  93 NE6       29.95S
FORT DRUM      NOT AVBL
MASSENA        CLOUDY    44  42  93 N5        29.99F
SARANAC LAKE   CLOUDY    40  38  93 CALM      29.93F
PLATTSBURGH    CLOUDY    42  41  96 SE8       30.01S
$$

NYZ001>004-010>016-019>021-085-021100-
WEST


CITY           SKY/WX    TMP DP  RH WIND       PRES   REMARKS
NIAGARA FALLS  LGT RAIN  44  41  89 NE9       29.94S FOG
BUFFALO        RAIN      43  42  97 NE12      29.93S VSB 1/2
DUNKIRK        RAIN      45  43  93 N12       29.90F FOG
JAMESTOWN      CLOUDY    45  43  93 NE7       29.84F
WELLSVILLE     RAIN      48  47  96 N6        29.87F VSB 1/4
ROCHESTER      DRZL/FOG  44  43  96 NE9       29.94F VSB 3/4
PENN YAN       CLOUDY    46  44  93 CALM      29.92F FOG
$$

             KEY
       WCI = WIND CHILL INDEX
       VSB = VISIBILITY
       HX  = HEAT INDEX
$$




USA.gov is the U.S. government's official web portal to all federal, state and local government web resources and services.